Regional Weather Roundup
Issued by NWS

Home | Current Version | Previous Version | Graphics & Text | Print | Product List | Glossary On
Versions: 1 2 3 4 5 6 7 8 9 10 11 12 13 14 15 16 17 18 19 20 21 22 23 24 25 26 27 28 29 30 31 32 33 34 35 36 37 38 39 40 41 42 43 44 45 46 47 48 49 50
000
ASUS43 KBIS 200520
RWRND

NORTH DAKOTA REGIONAL WEATHER ROUNDUP
NATIONAL WEATHER SERVICE BISMARCK ND
1100 PM CST FRI DEC 19 2014

NOTE: "FAIR" INDICATES FEW OR NO CLOUDS BELOW 12,000 FEET WITH NO
SIGNIFICANT WEATHER AND/OR OBSTRUCTIONS TO VISIBILITY.


NDZ001>003-009>011-017-200600-
NORTHWEST NORTH DAKOTA

CITY           SKY/WX    TMP DP  RH WIND       PRES   REMARKS
WILLISTON      FOG       16  14  92 NE5       29.91S VSB 1/2 WCI   9
MINOT          CLOUDY    24  22  91 SW5       29.93S FOG     WCI  18
MINOT AFB      FRZ DRZL  24  24 100 SW3       29.94R FOG
$$

NDZ018>021-031>035-040>046-200600-
SOUTHWEST NORTH DAKOTA

CITY           SKY/WX    TMP DP  RH WIND       PRES   REMARKS
BISMARCK       MOCLDY    17  14  88 NE3       29.96R
DICKINSON      CLEAR     25  19  78 S3        29.87S
GARRISON         N/A     27  25  92 VRB3      29.92F
HETTINGER ARPT CLEAR     22  18  85 CALM      29.92R
$$

NDZ004>008-012>016-024-026-027-054-200600-
NORTHEAST NORTH DAKOTA

CITY           SKY/WX    TMP DP  RH WIND       PRES   REMARKS
GRAND FORKS    CLOUDY    29  28  96 S6        30.00R
GRND FRKS AFB  CLOUDY    29  29 100 SW5       30.00R
DEVILS LAKE    CLOUDY    25  18  74 CALM      29.94S
$$

NDZ022-023-025-028>030-036>039-047>053-200600-
SOUTHEAST NORTH DAKOTA

CITY           SKY/WX    TMP DP  RH WIND       PRES   REMARKS
FARGO          CLOUDY    32  28  85 S10       30.02S
JAMESTOWN      CLOUDY    24  22  91 S8        29.95F FOG     WCI  15
$$




USA.gov is the U.S. government's official web portal to all federal, state and local government web resources and services.